sat.trackr.live / text

‹ back to catalog

STARLINK-31234

NORAD 59043 · 2024-038W

PAYLOAD ACTIVE UNKNOWN

§ Identity

Operator
Country
US
Launch date
2024-02-25
Launch site
AFETR
Launch vehicle
Mass (kg)
RCS (m²)

Purposes: comms

External: N2YO · Heavens-Above · Gunter

§ Orbital elements

Epoch: 2026-09-20T07:53:30.726240Z

Period
94.27 min
Inclination
43.0034°
Eccentricity
0.0000819
Mean motion
15.27575100 rev/d
Perigee alt
482.5 km
Apogee alt
483.6 km
Semi-major
6,861.2 km
B*
-1.0744e-5
RAAN
4.5292°
Arg perigee
275.4480°
Mean anomaly
84.6278°
Rev number
14,445

§ Raw data

STARLINK-312341 59043U 24038W   26263.32882785 -.00000557  00000+0 -10744-4 0  99982 59043  43.0034   4.5292 0000819 275.4480  84.6278 15.27575100144453

JSON: /api/v1/satellites/59043 · /tle

For live sub-satellite position, see the globe view (requires WebGL).

§ Visibility from observer

Set your observer location to see the next 7 days of passes ≥ 10°. The values pass through the URL so the page stays shareable.

No JS? Fill the form by hand. The geolocation button needs JavaScript.